Pagosa Springs, CO

5:02 PM MDT on April 23, 2017 (GMT -0600)
Pagosa Springs

Weather History for KPSO - April, 2013

Change the Weather History Date:

Monday, April 1, 2013

  Actual Average (KE33) Record (KE33)
Temperature  
Mean Temperature 46 °F -  
Max Temperature 59 °F 47 °F 66 °F (2002)
Min Temperature 33 °F 29 °F 15 °F (2005)
Degree Days  
Heating Degree Days 19    
Moisture  
Dew Point 19 °F    
Average Humidity 39    
Maximum Humidity 68    
Minimum Humidity 12    
Precipitation  
Precipitation 0.00 in - - ()
Sea Level Pressure  
Sea Level Pressure 30.07 in    
Wind  
Wind Speed 4 mph (SW)    
Max Wind Speed 21 mph    
Max Gust Speed 30 mph    
Visibility 10 miles    
Events Thunderstorm    
Averages and records for this station are not official NWS values.
T = Trace of Precipitation, MM = Missing Value Source: NWS Daily Summary

Daily Weather History Graph

Daily Weather History Graph

Search for Another Location

Airport or City:

Trip Planner

Search our weather history database for the weather conditions in past years. The results will help you decide how hot, cold, wet, or windy it might be!

Date:

Astronomy

Apr. 01, 2013 Rise Set
Actual Time 6:53 AM MDT 7:31 PM MDT
Civil Twilight 6:27 AM MDT 7:57 PM MDT
Nautical Twilight 5:56 AM MDT 8:28 PM MDT
Astronomical Twilight 5:24 AM MDT 9:00 PM MDT
Moon 12:36 AM MDT (4/1) 10:48 AM MDT (4/1)
Length of Visible Light 13h 30m
Length of Day
12h 37m
Waning Gibbous, 66% of the Moon is Illuminated
Apr 1
Waning Gibbous
Apr 2
Last Quarter
Apr 10
New
Apr 18
First Quarter
Apr 25
Full

Hourly Weather History & Observations

Time (MDT) Temp. Windchill Dew Point Humidity Pressure Visibility Wind Dir Wind Speed Gust Speed Precip Events Conditions
12:15 AM 37.6 °F - 21.7 °F 53% 30.12 in 10.0 mi Calm Calm - N/A   Clear
12:35 AM 36.7 °F - 21.2 °F 54% 30.12 in 10.0 mi Calm Calm - N/A   Clear
12:55 AM 35.6 °F - 23.2 °F 61% 30.12 in 10.0 mi Calm Calm - N/A   Clear
1:15 AM 35.4 °F - 23.9 °F 63% 30.12 in 10.0 mi Calm Calm - N/A   Scattered Clouds
1:35 AM 37.8 °F - 21.7 °F 53% 30.12 in 10.0 mi Calm Calm - N/A   Scattered Clouds
1:55 AM 34.9 °F - 22.8 °F 61% 30.12 in 10.0 mi Calm Calm - N/A   Mostly Cloudy
2:15 AM 38.1 °F - 21.9 °F 52% 30.12 in 10.0 mi Calm Calm - N/A   Scattered Clouds
2:35 AM 38.7 °F - 21.7 °F 51% 30.11 in 10.0 mi Calm Calm - N/A   Scattered Clouds
2:55 AM 38.7 °F - 20.5 °F 48% 30.11 in 10.0 mi Calm Calm - N/A   Scattered Clouds
3:15 AM 35.6 °F - 24.6 °F 64% 30.11 in 10.0 mi Calm Calm - N/A   Scattered Clouds
3:35 AM 38.8 °F - 21.4 °F 50% 30.11 in 10.0 mi Calm Calm - N/A   Scattered Clouds
3:55 AM 38.8 °F 34.6 °F 22.5 °F 52% 30.12 in 10.0 mi SW 5.8 mph - N/A   Mostly Cloudy
4:15 AM 39.6 °F 37.4 °F 22.5 °F 50% 30.13 in 10.0 mi ESE 3.5 mph - N/A   Mostly Cloudy
4:35 AM 34.9 °F 32.0 °F 23.0 °F 62% 30.13 in 10.0 mi NNE 3.5 mph - N/A   Scattered Clouds
4:55 AM 33.4 °F 27.3 °F 23.0 °F 66% 30.13 in 10.0 mi NE 6.9 mph - N/A   Clear
5:15 AM 33.6 °F 29.4 °F 23.5 °F 67% 30.13 in 10.0 mi NNE 4.6 mph - N/A   Clear
5:35 AM 33.8 °F - 23.9 °F 67% 30.12 in 10.0 mi Calm Calm - N/A   Scattered Clouds
6:15 AM 34.0 °F - 23.5 °F 66% 30.13 in 10.0 mi Calm Calm - N/A   Scattered Clouds
6:35 AM 33.4 °F - 23.9 °F 68% 30.13 in 10.0 mi Calm Calm - N/A   Scattered Clouds
6:55 AM 34.7 °F - 24.4 °F 66% 30.12 in 10.0 mi Calm Calm - N/A   Mostly Cloudy
7:15 AM 35.2 °F 32.4 °F 23.9 °F 63% 30.13 in 7.0 mi NE 3.5 mph - N/A   Overcast
7:35 AM 37.0 °F - 26.1 °F 65% 30.13 in 10.0 mi Calm Calm - N/A   Mostly Cloudy
8:15 AM 40.1 °F - 27.9 °F 62% 30.13 in 10.0 mi Calm Calm - N/A   Scattered Clouds
8:35 AM 41.9 °F - 29.5 °F 61% 30.13 in 10.0 mi Calm Calm - N/A   Scattered Clouds
8:55 AM 42.4 °F - 29.7 °F 61% 30.14 in 10.0 mi Calm Calm - N/A   Scattered Clouds
9:15 AM 45.5 °F 44.2 °F 30.6 °F 56% 30.13 in 10.0 mi SSW 3.5 mph - N/A   Mostly Cloudy
9:35 AM 47.3 °F - 30.6 °F 52% 30.14 in 10.0 mi Calm Calm - N/A   Mostly Cloudy
9:55 AM 48.4 °F - 29.8 °F 49% 30.14 in 10.0 mi SW 4.6 mph - N/A   Scattered Clouds
10:15 AM 50.4 °F - 27.5 °F 41% 30.13 in 10.0 mi SSW 6.9 mph - N/A Thunderstorm Thunderstorm
10:35 AM 51.6 °F - 25.3 °F 36% 30.13 in 10.0 mi South 4.6 mph - N/A   Scattered Clouds
10:55 AM 50.9 °F - 24.8 °F 36% 30.13 in 10.0 mi SSW 5.8 mph - N/A   Scattered Clouds
11:15 AM 52.3 °F - 24.8 °F 34% 30.13 in 10.0 mi SSW 8.1 mph - N/A   Scattered Clouds
11:35 AM 52.7 °F - 24.6 °F 34% 30.12 in 10.0 mi South 8.1 mph - N/A   Mostly Cloudy
12:15 PM 54.3 °F - 23.7 °F 31% 30.10 in 10.0 mi SW 6.9 mph - N/A   Scattered Clouds
12:35 PM 55.2 °F - 23.5 °F 29% 30.09 in 10.0 mi SW 8.1 mph 17.3 mph N/A   Scattered Clouds
12:55 PM 55.0 °F - 21.9 °F 28% 30.09 in 10.0 mi WSW 9.2 mph - N/A   Scattered Clouds
1:15 PM 56.3 °F - 19.6 °F 24% 30.08 in 10.0 mi SSW 8.1 mph 18.4 mph N/A   Scattered Clouds
1:35 PM 55.6 °F - 18.7 °F 24% 30.07 in 10.0 mi WSW 10.4 mph 16.1 mph N/A   Scattered Clouds
2:15 PM 58.1 °F - 10.2 °F 15% 30.05 in 10.0 mi WSW 16.1 mph 23.0 mph N/A   Scattered Clouds
2:35 PM 59.0 °F - 5.5 °F 12% 30.04 in 10.0 mi South 18.4 mph 26.5 mph N/A   Scattered Clouds
2:55 PM 57.9 °F - 7.2 °F 13% 30.04 in 10.0 mi SW 15.0 mph 25.3 mph N/A   Scattered Clouds
3:15 PM 58.8 °F - 5.5 °F 12% 30.03 in 10.0 mi SW 16.1 mph 29.9 mph N/A   Clear
3:35 PM 59.5 °F - 6.4 °F 12% 30.02 in 10.0 mi SSW 20.7 mph 28.8 mph N/A   Clear
3:55 PM 59.0 °F - 7.0 °F 13% 30.01 in 10.0 mi SW 8.1 mph 25.3 mph N/A   Scattered Clouds
4:15 PM 58.3 °F - 9.1 °F 14% 30.00 in 10.0 mi SSW 15.0 mph - N/A   Mostly Cloudy
4:35 PM 59.9 °F - 10.6 °F 14% 29.99 in 10.0 mi SW 12.7 mph 20.7 mph N/A   Mostly Cloudy
4:55 PM 57.6 °F - 10.4 °F 15% 29.99 in 10.0 mi SW 13.8 mph 19.6 mph N/A   Scattered Clouds
5:15 PM 59.4 °F - 9.3 °F 14% 29.99 in 10.0 mi SSW 20.7 mph - N/A   Overcast
5:35 PM 57.2 °F - 11.8 °F 17% 29.99 in 10.0 mi WSW 10.4 mph - N/A   Mostly Cloudy
5:55 PM 59.0 °F - 13.1 °F 16% 29.97 in 10.0 mi WSW 10.4 mph 23.0 mph N/A   Scattered Clouds
6:15 PM 58.3 °F - 11.5 °F 16% 29.97 in 10.0 mi SW 11.5 mph 23.0 mph N/A   Scattered Clouds
6:35 PM 57.7 °F - 12.2 °F 17% 29.97 in 10.0 mi SSW 4.6 mph - N/A   Mostly Cloudy
6:55 PM 57.2 °F - 5.9 °F 13% 29.97 in 10.0 mi SW 13.8 mph 19.6 mph N/A   Scattered Clouds
7:15 PM 56.5 °F - 5.0 °F 13% 29.97 in 10.0 mi SW 12.7 mph 16.1 mph N/A   Scattered Clouds
7:35 PM 55.4 °F - 7.2 °F 14% 29.97 in 10.0 mi WSW 12.7 mph 16.1 mph N/A   Clear
7:55 PM 53.8 °F - 9.0 °F 17% 29.98 in 10.0 mi WSW 4.6 mph - N/A   Scattered Clouds
8:15 PM 51.8 °F - 9.0 °F 18% 29.99 in 10.0 mi Calm Calm - N/A   Mostly Cloudy
8:35 PM 45.9 °F - 22.6 °F 40% 29.99 in 10.0 mi Calm Calm - N/A   Mostly Cloudy
8:55 PM 47.3 °F - 12.9 °F 25% 29.99 in 10.0 mi Calm Calm - N/A   Mostly Cloudy
9:15 PM 47.7 °F - 17.2 °F 30% 30.00 in 10.0 mi West 3.5 mph - N/A   Mostly Cloudy
9:35 PM 48.9 °F - 15.3 °F 26% 30.01 in 10.0 mi Calm Calm - N/A   Mostly Cloudy
9:55 PM 45.0 °F - 20.7 °F 38% 30.01 in 10.0 mi Calm Calm - N/A   Clear
10:15 PM 42.4 °F - 19.9 °F 41% 30.01 in 10.0 mi Calm Calm - N/A   Clear
10:35 PM 42.1 °F - 16.3 °F 35% 30.01 in 10.0 mi Calm Calm - N/A   Clear
10:55 PM 39.9 °F - 19.9 °F 45% 30.01 in 10.0 mi Calm Calm - N/A   Clear
11:15 PM 39.6 °F - 17.1 °F 40% 30.01 in 10.0 mi Calm Calm - N/A   Clear
11:35 PM 39.0 °F - 17.2 °F 41% 30.01 in 10.0 mi Calm Calm - N/A   Clear
11:55 PM 38.5 °F - 16.0 °F 40% 30.01 in 10.0 mi Calm Calm - N/A   Clear